Location: Coupvray
(48.8929°N, 2.7967°E)
Time: 00:14:32
(UTC+00:00)

Cosmos 724 - Pass Details

Date: 31 October 2020
Orbit: 851 x 943 km, 65.6° (Epoch: 28 November)

Event Time Altitude Azimuth Distance (km) Brightness Sun altitude
Exits shadow 03:27:16 15° 348° (NNW) 2,270 6.4 -31.1°
Maximum altitude 03:29:17 17° 11° (N) 2,142 6.5 -30.8°
Drops below altitude 10° 03:33:14 10° 51° (NE) 2,640 7.5 -30.1°
Sets 03:36:46 0° 71° (ENE) 3,595 8.7 -29.6°
